FW7194 Weather Reports


Display with metric or nautical units.
time (UTC)temp
F
wind
direction
speed
MPH
gust
MPH
rain 1hr
in
rain 24hr
in
rain mn
in
humidity
%
barometer
mb
20260507093312 73 180 3.0 5.0 0.00 0.00 0.00 84 1011.6
20260507092810 74 208 3.0 6.0 0.00 0.00 0.00 84 1011.4
20260507092307 74 207 2.0 6.0 0.00 0.00 0.00 83 1011.7
20260507091803 74 225 3.0 7.0 0.00 0.00 0.00 83 1011.5
20260507091259 74 209 2.0 3.0 0.00 0.00 0.00 83 1011.3
20260507090759 74 198 4.0 9.0 0.00 0.00 0.00 83 1011.3
20260507090256 74 250 2.0 10.0 0.00 0.00 0.00 83 1011.4
20260507085753 74 257 4.0 9.0 0.00 0.00 0.00 83 1011.3
20260507085250 74 223 5.0 7.0 0.00 0.00 0.00 83 1011.2
20260507084747 74 197 10.0 13.0 0.00 0.00 0.00 83 1011.0
20260507084243 74 203 8.0 14.0 0.00 0.00 0.00 83 1010.7
20260507083741 74 185 5.0 17.0 0.00 0.00 0.00 83 1010.4
20260507083238 74 194 7.0 13.0 0.00 0.00 0.00 83 1010.7
20260507082734 74 218 4.0 6.0 0.00 0.00 0.00 84 1010.7
20260507082229 74 182 7.0 10.0 0.00 0.00 0.00 84 1010.9
20260507081727 74 205 2.0 10.0 0.00 0.00 0.00 85 1010.8
20260507081222 74 291 5.0 10.0 0.00 0.00 0.00 85 1010.8
20260507080719 74 237 7.0 11.0 0.00 0.00 0.00 85 1010.8
20260507080215 74 234 2.0 9.0 0.00 0.00 0.00 85 1010.7
20260507075711 74 214 5.0 9.0 0.00 0.00 0.00 86 1010.7
20260507075208 74 230 7.0 8.0 0.00 0.00 0.00 86 1010.4
20260507074704 74 222 8.0 14.0 0.00 0.00 0.00 86 1010.5
20260507074202 74 196 5.0 15.0 0.00 0.00 0.00 86 1010.3
20260507073658 74 304 5.0 9.0 0.00 0.00 0.00 86 1010.0
20260507073154 74 200 4.0 16.0 0.00 0.00 0.00 86 1010.1
20260507072653 74 199 6.0 11.0 0.00 0.00 0.00 86 1010.0
20260507072150 74 195 11.0 15.0 0.00 0.00 0.00 86 1009.7
20260507071648 74 215 5.0 13.0 0.00 0.00 0.00 86 1010.2
20260507071143 74 223 7.0 16.0 0.00 0.00 0.00 86 1010.4
20260507070641 74 201 2.0 7.0 0.00 0.00 0.00 86 1010.4
20260507070137 74 215 6.0 14.0 0.00 0.00 0.00 86 1010.7
20260507065634 74 254 4.0 10.0 0.00 0.00 0.00 86 1010.6
20260507065131 74 217 8.0 10.0 0.00 0.00 0.00 86 1010.8
20260507064628 74 173 5.0 8.0 0.00 0.00 0.00 86 1010.9
20260507064127 74 232 6.0 11.0 0.00 0.00 0.00 86 1011.0
20260507063624 74 169 7.0 11.0 0.00 0.00 0.00 86 1011.2
20260507063121 74 239 5.0 13.0 0.00 0.00 0.00 87 1011.4
20260507062617 74 229 5.0 7.0 0.00 0.00 0.00 87 1011.5
20260507062115 74 223 5.0 8.0 0.00 0.00 0.00 87 1011.4
20260507061613 74 178 4.0 7.0 0.00 0.00 0.00 87 1011.7
20260507061111 74 280 4.0 7.0 0.00 0.00 0.00 87 1012.0
20260507060609 74 203 8.0 11.0 0.00 0.00 0.00 87 1012.2
20260507060105 74 209 1.0 7.0 0.00 0.00 0.00 87 1012.0
20260507055600 74 220 6.0 11.0 0.00 0.00 0.00 87 1012.3
20260507055056 74 254 4.0 10.0 0.00 0.00 0.00 87 1012.4
20260507054552 74 218 7.0 8.0 0.00 0.00 0.00 87 1012.4
20260507054050 74 178 3.0 5.0 0.00 0.00 0.00 87 1012.4
20260507053548 74 240 4.0 9.0 0.00 0.00 0.00 87 1012.7
20260507053046 74 235 2.0 3.0 0.00 0.00 0.00 87 1012.5
20260507052543 74 259 5.0 7.0 0.00 0.00 0.00 87 1012.7
20260507052040 74 255 2.0 3.0 0.00 0.00 0.00 87 1012.7
20260507051538 74 224 2.0 3.0 0.00 0.00 0.00 87 1012.6
20260507051034 74 181 1.0 3.0 0.00 0.00 0.00 87 1012.6
20260507050531 74 234 0.0 1.0 0.00 0.00 0.00 87 1013.1
20260507050027 74 163 3.0 7.0 0.00 0.00 0.00 87 1013.1
20260507045524 74 207 1.0 5.0 0.00 0.00 0.00 87 1012.9
20260507045021 74 211 3.0 6.0 0.00 0.00 0.00 87 1013.0
20260507044518 74 208 4.0 8.0 0.00 0.00 0.00 87 1012.8
20260507044015 74 135 2.0 3.0 0.00 0.00 0.00 87 1012.8
20260507043511 74 192 3.0 8.0 0.00 0.00 0.00 87 1012.9
20260507043008 74 206 2.0 6.0 0.00 0.00 0.00 87 1013.0
20260507042504 74 197 3.0 7.0 0.00 0.00 0.00 87 1012.6
20260507041959 74 223 5.0 9.0 0.00 0.00 0.00 87 1012.7
20260507041457 74 163 7.0 14.0 0.00 0.00 0.00 87 1013.0
20260507040954 74 203 5.0 13.0 0.00 0.00 0.00 87 1012.7
20260507040449 74 157 6.0 7.0 0.00 0.00 0.00 87 1012.9
20260507035945 74 189 10.0 13.0 0.00 0.00 0.00 87 1012.8
20260507035442 74 256 4.0 11.0 0.00 0.00 0.00 87 1012.5
20260507034939 74 190 7.0 11.0 0.00 0.00 0.00 87 1012.7
20260507034436 74 206 5.0 8.0 0.00 0.00 0.00 87 1012.6
20260507033934 74 195 7.0 9.0 0.00 0.00 0.00 87 1012.1
20260507033431 74 193 6.0 15.0 0.00 0.00 0.00 88 1012.3
20260507032928 74 181 6.0 8.0 0.00 0.00 0.00 87 1012.5
20260507032425 74 233 5.0 9.0 0.00 0.00 0.00 87 1012.3
20260507031921 74 167 7.0 10.0 0.00 0.00 0.00 88 1012.3
20260507031418 74 215 6.0 10.0 0.00 0.00 0.00 88 1011.9
20260507030915 74 231 6.0 9.0 0.00 0.00 0.00 88 1012.1
20260507030412 74 190 5.0 13.0 0.00 0.00 0.00 88 1012.1
20260507025909 74 224 5.0 10.0 0.00 0.00 0.00 88 1012.6
20260507025406 74 207 5.0 11.0 0.00 0.00 0.00 88 1012.4
20260507024904 74 216 3.0 13.0 0.00 0.00 0.00 88 1012.3
20260507024401 74 221 6.0 9.0 0.00 0.00 0.00 88 1012.4
20260507023857 74 167 11.0 13.0 0.00 0.00 0.00 87 1012.0
20260507023354 73 207 6.0 9.0 0.00 0.00 0.00 87 1011.8
20260507022851 73 150 4.0 9.0 0.00 0.00 0.00 87 1012.0
20260507022347 73 160 10.0 15.0 0.00 0.00 0.00 87 1012.1
20260507021843 73 212 5.0 9.0 0.00 0.00 0.00 87 1012.4
20260507021339 73 195 6.0 11.0 0.00 0.00 0.00 87 1012.2
20260507020837 73 238 6.0 8.0 0.00 0.00 0.00 87 1012.5
20260507020333 73 210 6.0 11.0 0.00 0.00 0.00 88 1012.6
20260507015831 73 191 7.0 8.0 0.00 0.00 0.00 87 1012.6
20260507015329 73 214 2.0 9.0 0.00 0.00 0.00 87 1012.3
20260507014825 73 218 8.0 10.0 0.00 0.00 0.00 87 1012.6
20260507014321 73 230 7.0 9.0 0.00 0.00 0.00 87 1012.9
20260507013818 73 199 4.0 8.0 0.00 0.00 0.00 87 1012.9
20260507013315 73 216 7.0 9.0 0.00 0.00 0.00 87 1012.6
20260507012813 73 243 2.0 11.0 0.00 0.00 0.00 87 1012.7
20260507012308 73 219 5.0 11.0 0.00 0.00 0.00 87 1012.8
20260507011800 73 201 8.0 13.0 0.00 0.00 0.00 87 1012.9
20260507011256 73 182 2.0 10.0 0.00 0.00 0.00 87 1012.9
20260507010756 73 232 5.0 8.0 0.00 0.00 0.00 86 1012.9
20260507010252 73 203 6.0 11.0 0.00 0.00 0.00 86 1013.1
20260507005750 73 188 3.0 7.0 0.00 0.00 0.00 86 1013.1
20260507005246 73 238 8.0 9.0 0.00 0.00 0.00 86 1012.9
20260507004743 73 222 6.0 11.0 0.00 0.00 0.00 86 1012.7
20260507004241 73 195 3.0 8.0 0.00 0.00 0.00 85 1012.8
20260507003737 74 255 3.0 8.0 0.00 0.00 0.00 85 1012.7
20260507003232 74 193 4.0 11.0 0.00 0.00 0.00 84 1012.5
20260507002728 74 228 5.0 8.0 0.00 0.00 0.00 84 1012.7
20260507002224 74 169 5.0 7.0 0.00 0.00 0.00 83 1012.6
20260507001721 74 187 3.0 8.0 0.00 0.00 0.00 82 1012.7
20260507001219 74 214 7.0 8.0 0.00 0.00 0.00 82 1012.7
20260507000715 74 160 4.0 6.0 0.00 0.00 0.00 81 1012.9
20260507000212 74 186 3.0 9.0 0.00 0.00 0.00 81 1012.9
20260506235708 74 203 9.0 14.0 0.00 0.00 0.00 80 1012.9
20260506235203 75 234 3.0 9.0 0.00 0.00 0.00 79 1012.7
20260506234700 75 219 2.0 6.0 0.00 0.00 0.00 79 1012.8
20260506234157 75 161 7.0 11.0 0.00 0.00 0.00 79 1012.7
20260506233655 75 197 5.0 15.0 0.00 0.00 0.00 78 1012.5
20260506233151 75 190 9.0 17.0 0.00 0.00 0.00 78 1012.2
20260506232647 75 239 7.0 13.0 0.00 0.00 0.00 77 1012.6
20260506232142 75 209 9.0 14.0 0.00 0.00 0.00 77 1012.7
20260506231640 75 184 6.0 15.0 0.00 0.00 0.00 77 1012.6
20260506231139 75 201 11.0 13.0 0.00 0.00 0.00 77 1012.9
20260506230635 76 208 6.0 8.0 0.00 0.00 0.00 77 1012.9
20260506230132 76 143 3.0 5.0 0.00 0.00 0.00 77 1013.1
20260506225629 76 234 3.0 6.0 0.00 0.00 0.00 77 1013.0
20260506225125 76 210 4.0 9.0 0.00 0.00 0.00 76 1012.9
20260506224622 76 189 6.0 9.0 0.00 0.00 0.00 76 1012.9
20260506224118 76 190 9.0 11.0 0.00 0.00 0.00 76 1013.1
20260506223615 76 204 3.0 8.0 0.00 0.00 0.00 76 1012.9
20260506223111 76 243 6.0 13.0 0.00 0.00 0.00 75 1012.7
20260506222608 77 147 13.0 20.0 0.00 0.00 0.00 75 1012.5
20260506222104 77 201 9.0 14.0 0.00 0.00 0.00 75 1012.7
20260506221602 77 161 6.0 15.0 0.00 0.00 0.00 75 1012.5
20260506221100 77 212 6.0 18.0 0.00 0.00 0.00 74 1012.6
20260506220556 77 203 11.0 20.0 0.00 0.00 0.00 74 1012.6
20260506220051 77 221 6.0 13.0 0.00 0.00 0.00 74 1012.5
20260506215548 77 214 10.0 14.0 0.00 0.00 0.00 74 1012.7
20260506215044 77 227 7.0 15.0 0.00 0.00 0.00 74 1012.6
20260506214541 77 223 19.0 23.0 0.00 0.00 0.00 74 1012.6
20260506214038 77 233 5.0 13.0 0.00 0.00 0.00 74 1012.8
20260506213536 78 224 9.0 25.0 0.00 0.00 0.00 74 1012.7
20260506213033 78 204 6.0 14.0 0.00 0.00 0.00 74 1012.8
20260506212530 78 183 11.0 16.0 0.00 0.00 0.00 73 1012.7
20260506212025 78 202 7.0 11.0 0.00 0.00 0.00 73 1012.9
20260506211521 78 229 9.0 18.0 0.00 0.00 0.00 73 1012.9
20260506211018 78 227 9.0 17.0 0.00 0.00 0.00 72 1012.8
20260506210515 78 220 9.0 15.0 0.00 0.00 0.00 71 1012.8
20260506210011 78 204 8.0 22.0 0.00 0.00 0.00 71 1012.8
20260506205508 79 182 9.0 11.0 0.00 0.00 0.00 70 1012.8
20260506205004 79 164 11.0 17.0 0.00 0.00 0.00 70 1012.7
20260506204502 79 201 10.0 17.0 0.00 0.00 0.00 70 1012.9
20260506203958 79 183 11.0 22.0 0.00 0.00 0.00 70 1012.9
20260506203456 79 230 4.0 16.0 0.00 0.00 0.00 70 1013.0
20260506202953 79 212 5.0 16.0 0.00 0.00 0.00 70 1012.9
20260506202450 79 219 7.0 15.0 0.00 0.00 0.00 70 1012.8
20260506201940 79 205 12.0 17.0 0.00 0.00 0.00 71 1013.4
20260506201438 79 188 7.0 9.0 0.00 0.00 0.00 71 1013.0
20260506200934 79 218 8.0 15.0 0.00 0.00 0.00 72 1013.3
20260506200431 79 206 5.0 11.0 0.00 0.00 0.00 71 1013.3
20260506195927 79 195 12.0 21.0 0.00 0.00 0.00 72 1013.3
20260506195424 79 223 9.0 11.0 0.00 0.00 0.00 71 1013.4
20260506194921 80 201 12.0 17.0 0.00 0.00 0.00 71 1013.3
20260506194418 80 217 5.0 13.0 0.00 0.00 0.00 70 1013.5
20260506193915 80 185 11.0 17.0 0.00 0.00 0.00 70 1013.4
20260506193412 81 180 10.0 17.0 0.00 0.00 0.00 70 1013.4
20260506192908 81 204 9.0 18.0 0.00 0.00 0.00 68 1013.3
20260506192405 81 190 12.0 26.0 0.00 0.00 0.00 67 1013.5
20260506191902 81 231 6.0 11.0 0.00 0.00 0.00 68 1013.5
20260506191358 81 189 8.0 13.0 0.00 0.00 0.00 69 1013.6
20260506190856 81 146 4.0 11.0 0.00 0.00 0.00 69 1013.7
20260506190352 81 187 9.0 15.0 0.00 0.00 0.00 69 1013.8
20260506185849 81 182 11.0 15.0 0.00 0.00 0.00 70 1013.9
20260506185345 81 232 7.0 16.0 0.00 0.00 0.00 69 1014.0
20260506184837 81 230 6.0 14.0 0.00 0.00 0.00 70 1014.2
20260506184334 81 199 8.0 14.0 0.00 0.00 0.00 70 1014.1
20260506183832 81 223 5.0 8.0 0.00 0.00 0.00 69 1014.6
20260506183327 81 177 3.0 13.0 0.00 0.00 0.00 70 1014.2
20260506182824 81 220 7.0 18.0 0.00 0.00 0.00 70 1014.3
20260506182321 81 223 4.0 16.0 0.00 0.00 0.00 70 1014.5
20260506181819 81 177 7.0 10.0 0.00 0.00 0.00 70 1014.2
20260506181317 81 148 6.0 11.0 0.00 0.00 0.00 69 1014.4
20260506180814 81 206 4.0 16.0 0.00 0.00 0.00 69 1014.6
20260506180309 81 212 13.0 20.0 0.00 0.00 0.00 69 1014.5
20260506175806 81 243 2.0 11.0 0.00 0.00 0.00 68 1014.7
20260506175306 81 214 4.0 11.0 0.00 0.00 0.00 69 1014.6
20260506174800 81 191 4.0 11.0 0.00 0.00 0.00 69 1014.7
20260506174257 81 225 6.0 13.0 0.00 0.00 0.00 68 1015.1
20260506173749 81 219 2.0 8.0 0.00 0.00 0.00 69 1015.0
20260506173246 82 207 8.0 9.0 0.00 0.00 0.00 69 1015.2
20260506172742 82 188 6.0 11.0 0.00 0.00 0.00 66 1014.8
20260506172239 82 199 4.0 10.0 0.00 0.00 0.00 66 1015.0
20260506171737 82 190 2.0 8.0 0.00 0.00 0.00 68 1015.0
20260506171234 82 252 5.0 21.0 0.00 0.00 0.00 68 1015.1
20260506170731 82 195 9.0 13.0 0.00 0.00 0.00 66 1015.1
20260506170228 82 219 6.0 9.0 0.00 0.00 0.00 66 1015.2
20260506165726 82 236 9.0 11.0 0.00 0.00 0.00 66 1015.4
20260506165223 82 177 6.0 8.0 0.00 0.00 0.00 67 1015.0
20260506164720 82 188 6.0 9.0 0.00 0.00 0.00 66 1015.0
20260506164217 82 204 9.0 11.0 0.00 0.00 0.00 65 1015.1
20260506163713 82 210 6.0 8.0 0.00 0.00 0.00 67 1015.0
20260506163208 81 192 9.0 20.0 0.00 0.00 0.00 66 1015.1
20260506162705 81 189 5.0 9.0 0.00 0.00 0.00 65 1015.2
20260506162202 81 187 9.0 11.0 0.00 0.00 0.00 65 1015.1
20260506161659 80 207 2.0 8.0 0.00 0.00 0.00 66 1015.3
20260506161156 80 184 6.0 9.0 0.00 0.00 0.00 64 1015.6
20260506160654 81 184 8.0 13.0 0.00 0.00 0.00 64 1015.4
20260506160150 81 189 15.0 25.0 0.00 0.00 0.00 63 1015.3
20260506155649 81 249 7.0 18.0 0.00 0.00 0.00 62 1015.6
20260506155146 81 189 9.0 13.0 0.00 0.00 0.00 61 1015.4
20260506153248 82 217 9.0 17.0 0.00 0.00 0.00 58 1015.6
20260506152745 82 233 7.0 14.0 0.00 0.00 0.00 58 1015.6
20260506152242 82 182 5.0 8.0 0.00 0.00 0.00 59 1015.7
20260506151741 82 210 5.0 10.0 0.00 0.00 0.00 59 1015.7
20260506151237 81 224 9.0 14.0 0.00 0.00 0.00 61 1015.8
20260506150733 81 303 9.0 13.0 0.00 0.00 0.00 62 1015.8
20260506150231 81 203 2.0 11.0 0.00 0.00 0.00 61 1015.5
20260506145728 81 208 6.0 14.0 0.00 0.00 0.00 62 1015.4
20260506145224 81 203 6.0 10.0 0.00 0.00 0.00 61 1015.6
20260506144722 80 237 5.0 10.0 0.00 0.00 0.00 66 1015.4
20260506144219 80 207 4.0 8.0 0.00 0.00 0.00 67 1015.2
20260506143716 79 213 5.0 11.0 0.00 0.00 0.00 67 1015.3
20260506143214 79 211 7.0 13.0 0.00 0.00 0.00 70 1015.3
20260506142712 79 183 5.0 9.0 0.00 0.00 0.00 68 1015.3
20260506142210 79 182 4.0 9.0 0.00 0.00 0.00 70 1015.2
20260506141707 79 153 8.0 10.0 0.00 0.00 0.00 69 1015.3
20260506141205 79 231 4.0 11.0 0.00 0.00 0.00 68 1015.3
20260506140703 79 211 5.0 15.0 0.00 0.00 0.00 68 1015.4
20260506140159 78 195 6.0 15.0 0.00 0.00 0.00 69 1015.3
20260506135656 78 197 7.0 8.0 0.00 0.00 0.00 70 1015.2
20260506135153 78 203 6.0 10.0 0.00 0.00 0.00 69 1015.1
20260506134649 78 190 3.0 7.0 0.00 0.00 0.00 69 1015.2
20260506134145 78 175 3.0 18.0 0.00 0.00 0.00 69 1015.2
20260506133643 78 198 1.0 10.0 0.00 0.00 0.00 72 1015.1
20260506133140 77 231 9.0 11.0 0.00 0.00 0.00 71 1015.2
20260506132637 77 186 6.0 18.0 0.00 0.00 0.00 72 1015.1
20260506132133 76 222 7.0 9.0 0.00 0.00 0.00 75 1015.0
20260506131631 76 225 5.0 9.0 0.00 0.00 0.00 74 1015.0
20260506131127 75 173 4.0 21.0 0.00 0.00 0.00 77 1015.1
20260506130624 75 182 3.0 6.0 0.00 0.00 0.00 77 1015.1
20260506130122 74 164 7.0 14.0 0.00 0.00 0.00 79 1014.9
20260506125620 74 223 5.0 9.0 0.00 0.00 0.00 81 1015.0
20260506125117 73 184 6.0 9.0 0.00 0.00 0.00 82 1015.1
20260506124615 72 217 7.0 10.0 0.00 0.00 0.00 85 1015.0
20260506124113 71 202 6.0 11.0 0.00 0.00 0.00 85 1014.8
20260506123610 70 142 4.0 5.0 0.00 0.00 0.00 90 1014.8
20260506123109 69 206 2.0 8.0 0.00 0.00 0.00 93 1015.0
20260506122605 68 200 4.0 6.0 0.00 0.00 0.00 97 1014.8
20260506122103 66 186 5.0 9.0 0.00 0.00 0.00 98 1014.8
20260506121600 65 250 1.0 3.0 0.00 0.00 0.00 97 1015.0
20260506121056 64 145 0.0 2.0 0.00 0.00 0.00 97 1014.9
20260506120554 64 182 1.0 2.0 0.00 0.00 0.00 97 1015.0
20260506120051 63 187 1.0 3.0 0.00 0.00 0.00 97 1014.8
20260506115549 62 198 2.0 5.0 0.00 0.00 0.00 96 1014.8
20260506115048 62 151 0.0 0.0 0.00 0.00 0.00 96 1014.9
20260506114545 62 145 0.0 0.0 0.00 0.00 0.00 96 1014.7
20260506114043 61 151 0.0 0.0 0.00 0.00 0.00 96 1014.7
20260506113540 61 156 0.0 0.0 0.00 0.00 0.00 96 1014.4
20260506113038 61 159 0.0 0.0 0.00 0.00 0.00 96 1014.6
20260506112534 61 158 0.0 0.0 0.00 0.00 0.00 96 1014.6
20260506112031 60 158 0.0 1.0 0.00 0.00 0.00 95 1014.5
20260506111529 60 194 0.0 0.0 0.00 0.00 0.00 95 1014.6
20260506111026 60 203 0.0 0.0 0.00 0.00 0.00 95 1014.4
20260506110524 60 205 0.0 0.0 0.00 0.00 0.00 95 1014.5
20260506110021 60 201 0.0 1.0 0.00 0.00 0.00 95 1014.4
20260506105517 60 205 0.0 0.0 0.00 0.00 0.00 95 1014.4
20260506105014 60 205 0.0 0.0 0.00 0.00 0.00 95 1014.3
20260506104512 60 205 0.0 0.0 0.00 0.00 0.00 95 1014.3
20260506104010 60 205 0.0 0.0 0.00 0.00 0.00 95 1014.3
20260506103507 60 206 0.0 0.0 0.00 0.00 0.00 95 1014.3
20260506103004 60 208 0.0 0.0 0.00 0.00 0.00 95 1014.4
20260506102502 60 213 0.0 0.0 0.00 0.00 0.00 95 1014.2
20260506101959 60 206 0.0 1.0 0.00 0.00 0.00 95 1014.2
20260506101455 60 204 0.0 0.0 0.00 0.00 0.00 95 1014.1
20260506100953 60 205 0.0 0.0 0.00 0.00 0.00 95 1014.2
20260506100451 60 205 0.0 0.0 0.00 0.00 0.00 95 1014.2
20260506095949 60 204 0.0 0.0 0.00 0.00 0.00 95 1013.9
20260506095447 60 204 0.0 0.0 0.00 0.00 0.00 94 1014.2
20260506094942 60 204 0.0 0.0 0.00 0.00 0.00 94 1014.2
20260506094441 60 204 0.0 0.0 0.00 0.00 0.00 94 1014.1
20260506093939 60 204 0.0 0.0 0.00 0.00 0.00 94 1014.2